FENGYUN 1C DEB

Satellite information

Favourite Embed

Satellite Type and Status

DEBRISIN ORBIT

Key statistics

Satellite FENGYUN 1C DEB at a glance.

Uptime

9715

Days in orbit

Revolutions

≈ 13.8

Per day

Orbit

SSO

Sun Synchronous Orbit

Inclination

98.6

Latest

Satellite identification and parameters

Extended collection of information and parameters for FENGYUN 1C DEB.

Object identification

Identified? True

Debris? True

Object name: FENGYUN 1C DEB

International designator: 1999-025EQB

Object number (NORAD): 38130

Object ID (CCSDS): 38130

Country: PEOPLES REPUBLIC OF CHINA (PRC)

Current information (Y/N): Y

RCS size: SMALL

Orbital parameters

Period: 104.56 minutes

Inclination: 98.6035 deg

SMA: 7351.951 km

Apoapsis: 1127.115 km

Periapsis: 820.516 km

RAAN: 25.4413 deg

Eccentricy: 0.02085156

Argument of periapsis: 263.5047 deg

Mean anomaly: 94.2329 deg

Mean motion: 13.7720595 rev/day

Mean motion (dot): 0.00001933 rev/day2

B* drag term: 0.0016964005 1/REarth

Two-line elements (TLE)

Creation date: Nov. 28, 2025, 8:32 p.m.

Reference frame: TEME

Reference center: EARTH

Epoch: Nov. 28, 2025, 9:19 a.m. UTC

TLE line 0: 0 FENGYUN 1C DEB

TLE line 1: 1 38130U 99025EQB 25332.38822327 .00001933 00000-0 16964-2 0 9994

TLE line 2: 2 38130 98.6035 25.4413 0208516 263.5047 94.2329 13.77205950690852

Live tracking on map

Real-time ground track for satellite FENGYUN 1C DEB.

In-orbit conjunctions

A list of the most updated potential collisions computed for object FENGYUN 1C DEB.

Target Orbit TCA Probability of collision Miss distance Type
COSMOS 2173 LEO 2025-06-15 14:43:31 0.0001288567 506.0 (m) PAYLOAD

Associated space launch

Chinese polar orbiting meteorological satellite

FENGYUN 1C DEB was lifted into orbit during the mission ‘Long March 4B | Feng Yun 1C’, on board a Long March 4B space rocket.

The launch took place on May 10, 1999, 1:33 a.m. from Launch Complex 7.

For more information about the launch, click the button.

Launch to space Long March 4B | Feng Yun 1C
Long March 4B | Feng Yun 1C

Agency: N/A

Status: Launch Successful

Launch date: May 10, 1999, 1:33 a.m. UTC

Rocket: Long March 4B

Launch pad: Launch Complex 7

Location: Taiyuan Satellite Launch Center, People's Republic of China

...

Latest news about this satellite

There are no fresh news available about this satellite. Check back as we update our databases every day.


Newsletter sign-up

Weekly statistics, charts and insights to help you stay on top of the space industry.